ISTSAT-1

Satellite information

Favourite Embed

Satellite Type and Status

PAYLOADIN ORBIT

Key statistics

Satellite ISTSAT-1 at a glance.

Uptime

307

Days in orbit

Revolutions

≈ 15.0

Per day

Orbit

LEO

Low Earth Orbit

Inclination

62.0

Latest

Satellite identification and parameters

Extended collection of information and parameters for ISTSAT-1.

Object identification

Identified? True

Debris? False

Object name: ISTSAT-1

International designator: 2024-128D

Object number (NORAD): 60238

Object ID (CCSDS): 60238

Country: PORTUGAL (POR)

Current information (Y/N): Y

RCS size: SMALL

Orbital parameters

Period: 95.69 minutes

Inclination: 61.9897 deg

SMA: 6930.082 km

Apoapsis: 585.567 km

Periapsis: 518.327 km

RAAN: 178.5279 deg

Eccentricy: 0.0048513

Argument of periapsis: 50.6059 deg

Mean anomaly: 309.9313 deg

Mean motion: 15.04856927 rev/day

Mean motion (dot): 0.00005744 rev/day2

B* drag term: 0.00040863 1/REarth

Two-line elements (TLE)

Creation date: May 11, 2025, 10:56 p.m.

Reference frame: TEME

Reference center: EARTH

Epoch: May 11, 2025, 2:28 p.m. UTC

TLE line 0: 0 ISTSAT-1

TLE line 1: 1 60238U 24128D 25131.60341826 .00005744 00000-0 40863-3 0 9992

TLE line 2: 2 60238 61.9897 178.5279 0048513 50.6059 309.9313 15.04856927 45897

Live tracking on map

Real-time ground track for satellite ISTSAT-1.

In-orbit conjunctions

There are no conjunctions computed for ISTSAT-1, at the moment. Check back to stay up to date, as we update our databases every day.

Go to all conjunctions

Associated space launch

Maiden Flight of the Ariane 62 launch vehicle, carrying ten cubesats, two deployers, five experiments, and two reentry capsules.

ISTSAT-1 was lifted into orbit during the mission ‘Ariane 62 | Maiden Flight’, on board a Ariane 62 space rocket.

The launch took place on July 9, 2024, 7 p.m. from Ariane Launch Area 4.

For more information about the launch, click the button.

Launch to space Ariane 62 | Maiden Flight
Ariane 62 | Maiden Flight

Agency: European Space Agency

Status: Launch Successful

Launch date: July 9, 2024, 7 p.m. UTC

Rocket: Ariane 62

Launch pad: Ariane Launch Area 4

Location: Guiana Space Centre, French Guiana

...

Latest news about this satellite

News about space launch
ESA 2024 Highlights: flight of the Ariane 6

In 2024, ESA continued to drive Europe’s innovation and excellence in space, equipping the continent with advanced tools and knowledge to address global and local challenges. The year saw pioneering missions, cutting-edge satellites and the pivotal restor...

News about space launch
Europe lifts off from its launcher crisis

For the European space industry, the deafening rumble of the ascending rocket was a sigh of relief. On the afternoon of July 9, an Ariane 6 lifted off on a […]

News about space launch
Ariane 6 joint update report, 16 September 2024

The Ariane 6 Launcher Task Force consists of top management of ESA, as the overall Ariane 6 procuring entity and launch system architect, of the French space agency CNES as the launch base prime contractor, of ArianeGroup as the launcher system prime cont...


Newsletter sign-up

Weekly statistics, charts and insights to help you stay on top of the space industry.